This is the latest recevied weather packets stored in our database for station/object LZ3DJ-10. If no packets are shown the sender has not sent any weather packets the latest 10 day(s).
| Time | Temp. | Humidity | Pressure | Rain* | Wind** | Luminosity | Snow |
|---|---|---|---|---|---|---|---|
| 1787453106 | 23.33° C | 61% | 1012.2 hPa | 0 mm | 0 m/s | - | - |
| 1787452205 | 22.78° C | 63% | 1012.1 hPa | 0 mm | 0 m/s | - | - |
| 1787451306 | 22.22° C | 64% | 1012.1 hPa | 0 mm | 0 m/s | - | - |
| 1787450405 | 22.22° C | 64% | 1012.1 hPa | 0 mm | 0 m/s | - | - |
| 1787449506 | 22.78° C | 63% | 1012 hPa | 0 mm | 0 m/s | - | - |
| 1787448606 | 22.22° C | 63% | 1011.9 hPa | 0 mm | 0 m/s | - | - |
| 1787447705 | 22.78° C | 62% | 1011.9 hPa | 0 mm | 0 m/s | - | - |
| 1787446806 | 23.33° C | 60% | 1011.7 hPa | 0 mm | 0 m/s | - | - |
| 1787445906 | 22.22° C | 63% | 1011.9 hPa | 0 mm | 0 m/s | - | - |
| 1787445006 | 22.78° C | 62% | 1011.8 hPa | 0 mm | 0 m/s | - | - |
| 1787444105 | 22.78° C | 62% | 1011.6 hPa | 0 mm | 0 m/s | - | - |
| 1787443206 | 23.33° C | 60% | 1011.3 hPa | 0 mm | 0 m/s | - | - |
| 1787442306 | 22.78° C | 61% | 1011.2 hPa | 0 mm | 0 m/s | - | - |
| 1787441405 | 23.89° C | 58% | 1011 hPa | 0 mm | 0 m/s | - | - |
| 1787440506 | 23.33° C | 59% | 1011 hPa | 0 mm | 0 m/s | - | - |
| 1787439605 | 23.89° C | 58% | 1011 hPa | 0 mm | 0 m/s | - | - |
| 1787438706 | 24.44° C | 56% | 1010.9 hPa | 0 mm | 0 m/s | - | - |
| 1787437806 | 24.44° C | 55% | 1010.9 hPa | 0 mm | 0 m/s | - | - |
| 1787436906 | 23.89° C | 57% | 1011 hPa | 0 mm | 0 m/s | - | - |
| 1787436006 | 24.44° C | 55% | 1010.9 hPa | 0 mm | 0 m/s | - | - |
| 1787435106 | 24.44° C | 56% | 1010.8 hPa | 0 mm | 0 m/s | - | - |
| 1787434205 | 24.44° C | 55% | 1010.6 hPa | 0 mm | 0 m/s | - | - |
| 1787433305 | 25° C | 52% | 1010.3 hPa | 0 mm | 0 m/s | - | - |
| 1787432406 | 25° C | 55% | 1010.2 hPa | 0 mm | 0 m/s | - | - |
| 1787431506 | 25° C | 54% | 1010.2 hPa | 0 mm | 0 m/s | - | - |
* Rain latest hour (hover to see other rain measurements)
** Current wind speed in m/s (hover to see current wind gust speed)